Time,TemperatureF,DewpointF,PressureIn,WindDirection,WindDirectionDegrees,WindSpeedMPH,WindSpeedGustMPH,Humidity,HourlyPrecipIn,Conditions,Clouds,dailyrainin,SoftwareType,DateUTC
2013-05-21 00:00:00,75.4,66.5,29.66,NNW,327,0.0,0.0,74,0.00,,---,0.13,VWS V14.01,2013-05-21 04:00:00,
2013-05-21 00:01:00,75.4,66.5,29.66,NNW,327,0.0,0.0,74,0.00,,---,0.13,VWS V14.01,2013-05-21 04:01:00,
2013-05-21 00:06:00,75.5,66.6,29.66,NNW,327,0.0,1.0,74,0.00,,---,0.13,VWS V14.01,2013-05-21 04:06:00,
2013-05-21 00:11:00,74.9,66.4,29.66,NNW,327,0.0,1.0,75,0.00,,---,0.00,VWS V14.01,2013-05-21 04:11:00,
2013-05-21 00:16:00,74.8,66.3,29.66,NNW,327,0.0,1.0,75,0.00,,---,0.00,VWS V14.01,2013-05-21 04:16:00,
2013-05-21 00:21:00,74.8,66.3,29.66,NNW,327,0.0,0.0,75,0.00,,---,0.00,VWS V14.01,2013-05-21 04:21:00,
2013-05-21 00:26:00,74.9,66.4,29.65,NNW,327,0.0,0.0,75,0.00,,---,0.00,VWS V14.01,2013-05-21 04:26:00,
2013-05-21 00:31:00,74.9,66.4,29.65,NNW,327,0.0,0.0,75,0.00,,---,0.00,VWS V14.01,2013-05-21 04:31:00,
2013-05-21 00:36:00,74.7,66.6,29.65,NNW,327,0.0,0.0,76,0.00,,---,0.00,VWS V14.01,2013-05-21 04:36:00,
2013-05-21 00:41:00,74.4,66.3,29.65,NNW,327,0.0,0.0,76,0.00,,---,0.00,VWS V14.01,2013-05-21 04:41:00,
2013-05-21 00:46:00,74.4,66.7,29.65,NNW,327,0.0,0.0,77,0.00,,---,0.00,VWS V14.01,2013-05-21 04:46:00,
2013-05-21 00:51:00,74.3,66.6,29.65,NNW,327,0.0,0.0,77,0.00,,---,0.00,VWS V14.01,2013-05-21 04:51:00,
2013-05-21 00:56:00,74.3,66.6,29.65,NNW,327,0.0,0.0,77,0.00,,---,0.00,VWS V14.01,2013-05-21 04:56:00,
2013-05-21 01:01:00,74.3,66.6,29.65,NNW,327,0.0,0.0,77,0.00,,---,0.00,VWS V14.01,2013-05-21 05:01:00,
2013-05-21 01:06:00,74.2,66.9,29.65,NNW,327,0.0,0.0,78,0.00,,---,0.00,VWS V14.01,2013-05-21 05:06:00,
2013-05-21 01:11:00,74.1,66.8,29.66,NNW,327,0.0,0.0,78,0.00,,---,0.00,VWS V14.01,2013-05-21 05:11:00,
2013-05-21 01:16:00,74.3,67.0,29.66,NNW,327,0.0,0.0,78,0.00,,---,0.00,VWS V14.01,2013-05-21 05:16:00,
2013-05-21 01:21:00,74.4,67.1,29.66,NNW,344,0.0,3.0,78,0.00,,---,0.00,VWS V14.01,2013-05-21 05:21:00,
2013-05-21 01:26:00,74.5,67.2,29.66,NNW,344,0.0,0.0,78,0.00,,---,0.00,VWS V14.01,2013-05-21 05:26:00,
2013-05-21 01:31:00,74.5,67.2,29.66,NNW,344,0.0,1.0,78,0.00,,---,0.00,VWS V14.01,2013-05-21 05:31:00,
2013-05-21 01:36:00,74.6,67.3,29.66,NNW,344,0.0,0.0,78,0.00,,---,0.00,VWS V14.01,2013-05-21 05:36:00,
2013-05-21 01:41:00,74.6,67.3,29.65,NNW,344,0.0,0.0,78,0.00,,---,0.00,VWS V14.01,2013-05-21 05:41:00,
2013-05-21 01:46:00,74.6,67.7,29.65,NNW,344,0.0,0.0,79,0.00,,---,0.00,VWS V14.01,2013-05-21 05:46:00,
2013-05-21 01:51:00,74.6,67.7,29.65,NNW,344,0.0,1.0,79,0.00,,---,0.00,VWS V14.01,2013-05-21 05:51:00,
2013-05-21 01:56:00,74.7,67.8,29.65,NNW,344,0.0,1.0,79,0.00,,---,0.00,VWS V14.01,2013-05-21 05:56:00,
2013-05-21 02:01:00,74.7,67.8,29.65,NNW,344,0.0,0.0,79,0.00,,---,0.00,VWS V14.01,2013-05-21 06:01:00,
2013-05-21 02:06:00,74.6,67.7,29.65,NNW,344,0.0,1.0,79,0.00,,---,0.00,VWS V14.01,2013-05-21 06:06:00,
2013-05-21 02:11:00,74.8,67.9,29.64,North,358,0.0,4.0,79,0.00,,---,0.00,VWS V14.01,2013-05-21 06:11:00,
2013-05-21 02:16:00,74.9,67.6,29.64,North,358,0.0,0.0,78,0.00,,---,0.00,VWS V14.01,2013-05-21 06:16:00,
2013-05-21 02:21:00,75.0,67.7,29.64,NNE,26,0.0,5.0,78,0.00,,---,0.00,VWS V14.01,2013-05-21 06:21:00,
2013-05-21 02:26:00,75.0,67.7,29.62,NNE,25,2.0,2.0,78,0.00,,---,0.00,VWS V14.01,2013-05-21 06:26:00,
2013-05-21 02:31:00,74.9,67.9,29.62,NNE,25,0.0,0.0,79,0.00,,---,0.00,VWS V14.01,2013-05-21 06:31:00,
2013-05-21 02:36:00,74.8,67.9,29.62,NNE,25,0.0,0.0,79,0.00,,---,0.00,VWS V14.01,2013-05-21 06:36:00,
2013-05-21 02:41:00,74.9,67.9,29.62,NNE,25,0.0,0.0,79,0.00,,---,0.00,VWS V14.01,2013-05-21 06:41:00,
2013-05-21 02:46:00,74.9,67.9,29.62,NNE,25,0.0,0.0,79,0.00,,---,0.00,VWS V14.01,2013-05-21 06:46:00,
2013-05-21 02:51:00,74.9,68.3,29.62,NNE,25,0.0,1.0,80,0.00,,---,0.00,VWS V14.01,2013-05-21 06:51:00,
2013-05-21 02:55:00,74.4,65.6,29.64,North,2,1.0,6.0,74,0.00,,---,0.00,VWS V14.01,2013-05-21 06:55:00,
2013-05-21 03:00:00,72.4,63.3,29.64,North,358,1.0,9.0,73,0.00,,---,0.00,VWS V14.01,2013-05-21 07:00:00,
2013-05-21 03:05:00,70.9,62.6,29.64,NW,319,0.0,3.0,75,0.00,,---,0.00,VWS V14.01,2013-05-21 07:05:00,
2013-05-21 03:10:00,70.0,62.1,29.65,NW,319,0.0,1.0,76,0.00,,---,0.00,VWS V14.01,2013-05-21 07:10:00,
2013-05-21 03:15:00,69.4,61.9,29.65,NW,316,2.0,2.0,77,0.00,,---,0.00,VWS V14.01,2013-05-21 07:15:00,
2013-05-21 03:20:00,69.0,61.9,29.65,NW,316,0.0,2.0,78,0.00,,---,0.00,VWS V14.01,2013-05-21 07:20:00,
2013-05-21 03:25:00,68.7,61.9,29.63,West,263,5.0,5.0,79,0.00,,---,0.00,VWS V14.01,2013-05-21 07:25:00,
2013-05-21 03:30:00,68.5,61.7,29.63,NNW,330,2.0,5.0,79,0.00,,---,0.00,VWS V14.01,2013-05-21 07:30:00,
2013-05-21 03:35:00,67.8,62.5,29.63,WNW,290,0.0,5.0,83,0.05,,---,0.05,VWS V14.01,2013-05-21 07:35:00,
2013-05-21 03:40:00,66.3,62.3,29.66,WNW,295,2.0,6.0,87,0.09,,---,0.09,VWS V14.01,2013-05-21 07:40:00,
2013-05-21 03:45:00,65.4,62.4,29.66,WSW,252,0.0,4.0,90,0.14,,---,0.14,VWS V14.01,2013-05-21 07:45:00,
2013-05-21 03:50:00,64.7,62.3,29.66,WSW,252,0.0,1.0,92,0.21,,---,0.21,VWS V14.01,2013-05-21 07:50:00,
2013-05-21 03:55:00,64.3,62.2,29.70,WNW,300,0.0,3.0,93,0.28,,---,0.28,VWS V14.01,2013-05-21 07:55:00,
2013-05-21 04:00:00,63.9,62.1,29.70,NW,310,0.0,1.0,94,0.38,,---,0.38,VWS V14.01,2013-05-21 08:00:00,
2013-05-21 04:05:00,63.6,62.2,29.70,NW,310,0.0,1.0,95,0.42,,---,0.42,VWS V14.01,2013-05-21 08:05:00,
2013-05-21 04:10:00,63.6,62.2,29.67,NW,310,0.0,0.0,95,0.42,,---,0.42,VWS V14.01,2013-05-21 08:10:00,
2013-05-21 04:15:00,63.6,62.4,29.67,NW,310,0.0,0.0,96,0.43,,---,0.43,VWS V14.01,2013-05-21 08:15:00,
2013-05-21 04:20:00,63.7,62.5,29.67,NW,310,0.0,0.0,96,0.43,,---,0.43,VWS V14.01,2013-05-21 08:20:00,
2013-05-21 04:25:00,63.7,62.5,29.66,NW,310,0.0,0.0,96,0.43,,---,0.43,VWS V14.01,2013-05-21 08:25:00,
2013-05-21 04:30:00,63.5,62.3,29.66,NW,310,0.0,0.0,96,0.43,,---,0.43,VWS V14.01,2013-05-21 08:30:00,
2013-05-21 04:35:00,63.6,62.4,29.66,NW,310,0.0,0.0,96,0.43,,---,0.44,VWS V14.01,2013-05-21 08:35:00,
2013-05-21 04:40:00,63.6,62.7,29.65,NW,310,0.0,1.0,97,0.39,,---,0.45,VWS V14.01,2013-05-21 08:40:00,
2013-05-21 04:45:00,63.7,62.8,29.65,NW,310,0.0,1.0,97,0.35,,---,0.46,VWS V14.01,2013-05-21 08:45:00,
2013-05-21 04:50:00,63.6,62.7,29.65,NW,310,0.0,0.0,97,0.31,,---,0.46,VWS V14.01,2013-05-21 08:50:00,
2013-05-21 04:55:00,63.6,62.7,29.63,NW,310,0.0,1.0,97,0.23,,---,0.46,VWS V14.01,2013-05-21 08:55:00,
2013-05-21 05:00:00,63.6,62.7,29.63,NW,310,0.0,0.0,97,0.15,,---,0.46,VWS V14.01,2013-05-21 09:00:00,
2013-05-21 05:05:00,63.6,62.7,29.63,NW,310,0.0,0.0,97,0.06,,---,0.46,VWS V14.01,2013-05-21 09:05:00,
2013-05-21 05:10:00,63.6,62.7,29.62,NW,310,0.0,0.0,97,0.05,,---,0.47,VWS V14.01,2013-05-21 09:10:00,
2013-05-21 05:15:00,63.6,62.7,29.62,NW,310,0.0,1.0,97,0.05,,---,0.47,VWS V14.01,2013-05-21 09:15:00,
2013-05-21 05:20:00,63.6,62.7,29.62,NW,310,0.0,1.0,97,0.04,,---,0.47,VWS V14.01,2013-05-21 09:20:00,
2013-05-21 05:25:00,63.6,62.7,29.62,NW,310,0.0,0.0,97,0.04,,---,0.47,VWS V14.01,2013-05-21 09:25:00,
2013-05-21 05:30:00,63.6,62.7,29.62,NW,310,0.0,1.0,97,0.04,,---,0.47,VWS V14.01,2013-05-21 09:30:00,
2013-05-21 05:35:00,63.7,62.8,29.62,NW,310,0.0,0.0,97,0.03,,---,0.47,VWS V14.01,2013-05-21 09:35:00,
2013-05-21 05:40:00,63.7,62.8,29.63,NW,310,0.0,0.0,97,0.03,,---,0.47,VWS V14.01,2013-05-21 09:40:00,
2013-05-21 05:45:00,63.7,62.8,29.63,NW,310,0.0,0.0,97,0.02,,---,0.47,VWS V14.01,2013-05-21 09:45:00,
2013-05-21 05:50:00,63.7,63.1,29.63,NW,310,0.0,0.0,98,0.01,,---,0.47,VWS V14.01,2013-05-21 09:50:00,
2013-05-21 05:55:00,63.7,63.1,29.66,NW,310,0.0,0.0,98,0.01,,---,0.47,VWS V14.01,2013-05-21 09:55:00,
2013-05-21 06:00:00,63.6,63.0,29.66,NW,310,0.0,0.0,98,0.01,,---,0.47,VWS V14.01,2013-05-21 10:00:00,
2013-05-21 06:05:00,63.6,63.0,29.66,NW,310,0.0,0.0,98,0.01,,---,0.47,VWS V14.01,2013-05-21 10:05:00,
2013-05-21 06:10:00,63.6,63.0,29.65,NW,310,0.0,0.0,98,0.01,,---,0.47,VWS V14.01,2013-05-21 10:10:00,
2013-05-21 06:15:00,63.7,63.1,29.65,NW,310,0.0,1.0,98,0.00,,---,0.47,VWS V14.01,2013-05-21 10:15:00,
2013-05-21 06:20:00,63.6,63.0,29.65,NW,310,0.0,0.0,98,0.00,,---,0.47,VWS V14.01,2013-05-21 10:20:00,
2013-05-21 06:25:00,63.6,63.0,29.62,NW,310,0.0,0.0,98,0.00,,---,0.47,VWS V14.01,2013-05-21 10:25:00,
2013-05-21 06:30:00,63.5,62.9,29.62,NW,310,0.0,0.0,98,0.00,,---,0.47,VWS V14.01,2013-05-21 10:30:00,
2013-05-21 06:35:00,63.6,63.0,29.62,NW,310,0.0,0.0,98,0.00,,---,0.47,VWS V14.01,2013-05-21 10:35:00,
2013-05-21 06:40:00,63.6,63.0,29.62,NW,310,0.0,0.0,98,0.00,,---,0.47,VWS V14.01,2013-05-21 10:40:00,
2013-05-21 06:45:00,63.6,63.0,29.62,NW,310,0.0,0.0,98,0.00,,---,0.47,VWS V14.01,2013-05-21 10:45:00,
2013-05-21 06:50:00,63.6,63.0,29.62,NW,310,0.0,0.0,98,0.00,,---,0.47,VWS V14.01,2013-05-21 10:50:00,
2013-05-21 06:55:00,63.4,62.8,29.64,NW,310,0.0,0.0,98,0.00,,---,0.47,VWS V14.01,2013-05-21 10:55:00,
2013-05-21 07:00:00,63.4,62.8,29.64,NW,310,0.0,0.0,98,0.00,,---,0.47,VWS V14.01,2013-05-21 11:00:00,
2013-05-21 07:05:00,63.5,62.9,29.64,NW,310,0.0,0.0,98,0.00,,---,0.47,VWS V14.01,2013-05-21 11:05:00,
2013-05-21 07:10:00,63.6,63.0,29.65,NW,310,0.0,0.0,98,0.00,,---,0.47,VWS V14.01,2013-05-21 11:10:00,
2013-05-21 07:15:00,63.6,63.0,29.65,NW,310,0.0,0.0,98,0.00,,---,0.47,VWS V14.01,2013-05-21 11:15:00,
2013-05-21 07:20:00,63.7,63.1,29.65,NW,310,0.0,0.0,98,0.00,,---,0.47,VWS V14.01,2013-05-21 11:20:00,
2013-05-21 07:25:00,63.8,63.2,29.65,NW,310,0.0,0.0,98,0.00,,---,0.47,VWS V14.01,2013-05-21 11:25:00,
2013-05-21 07:30:00,63.8,63.2,29.65,NW,310,0.0,0.0,98,0.00,,---,0.47,VWS V14.01,2013-05-21 11:30:00,
2013-05-21 07:35:00,64.0,63.4,29.65,NW,310,0.0,0.0,98,0.00,,---,0.47,VWS V14.01,2013-05-21 11:35:00,
2013-05-21 07:40:00,64.1,63.5,29.65,NW,310,0.0,1.0,98,0.00,,---,0.47,VWS V14.01,2013-05-21 11:40:00,
2013-05-21 07:45:00,64.1,63.5,29.65,NW,310,0.0,0.0,98,0.00,,---,0.47,VWS V14.01,2013-05-21 11:45:00,
2013-05-21 07:50:00,64.2,63.6,29.65,NW,310,0.0,2.0,98,0.00,,---,0.47,VWS V14.01,2013-05-21 11:50:00,
2013-05-21 07:55:00,64.4,63.8,29.65,NW,310,0.0,0.0,98,0.00,,---,0.47,VWS V14.01,2013-05-21 11:55:00,
2013-05-21 08:00:00,64.5,63.9,29.65,NW,310,0.0,1.0,98,0.00,,---,0.47,VWS V14.01,2013-05-21 12:00:00,
2013-05-21 08:05:00,64.6,64.0,29.65,NW,310,0.0,2.0,98,0.00,,---,0.47,VWS V14.01,2013-05-21 12:05:00,
2013-05-21 08:10:00,64.8,64.2,29.66,NW,310,0.0,1.0,98,0.00,,---,0.47,VWS V14.01,2013-05-21 12:10:00,
2013-05-21 08:15:00,64.8,64.2,29.66,NW,310,0.0,1.0,98,0.00,,---,0.47,VWS V14.01,2013-05-21 12:15:00,
2013-05-21 08:20:00,64.6,64.0,29.66,NW,310,0.0,2.0,98,0.00,,---,0.47,VWS V14.01,2013-05-21 12:20:00,
2013-05-21 08:25:00,64.6,64.0,29.65,NW,310,0.0,0.0,98,0.00,,---,0.47,VWS V14.01,2013-05-21 12:25:00,
2013-05-21 08:30:00,64.8,64.2,29.65,NW,310,0.0,0.0,98,0.00,,---,0.47,VWS V14.01,2013-05-21 12:30:00,
2013-05-21 08:35:00,64.9,64.3,29.65,NW,310,0.0,0.0,98,0.00,,---,0.47,VWS V14.01,2013-05-21 12:35:00,
2013-05-21 08:40:00,64.8,64.2,29.66,NW,310,0.0,0.0,98,0.00,,---,0.47,VWS V14.01,2013-05-21 12:40:00,
2013-05-21 08:45:00,65.0,64.4,29.66,NW,310,0.0,0.0,98,0.00,,---,0.47,VWS V14.01,2013-05-21 12:45:00,
2013-05-21 08:50:00,65.4,64.8,29.66,NW,310,0.0,0.0,98,0.00,,---,0.47,VWS V14.01,2013-05-21 12:50:00,
2013-05-21 08:55:00,65.8,64.9,29.65,NW,310,0.0,1.0,97,0.00,,---,0.47,VWS V14.01,2013-05-21 12:55:00,
2013-05-21 09:00:00,65.8,64.6,29.65,North,356,0.0,1.0,96,0.00,,---,0.47,VWS V14.01,2013-05-21 13:00:00,
2013-05-21 09:05:00,65.6,64.1,29.65,North,356,0.0,2.0,95,0.00,,---,0.47,VWS V14.01,2013-05-21 13:05:00,
2013-05-21 09:10:00,65.7,64.2,29.66,North,356,0.0,3.0,95,0.00,,---,0.47,VWS V14.01,2013-05-21 13:10:00,
2013-05-21 09:15:00,65.9,64.4,29.66,North,356,0.0,0.0,95,0.00,,---,0.47,VWS V14.01,2013-05-21 13:15:00,
2013-05-21 09:20:00,66.3,64.5,29.66,North,356,0.0,1.0,94,0.00,,---,0.47,VWS V14.01,2013-05-21 13:20:00,
2013-05-21 09:25:00,66.6,64.5,29.66,North,5,0.0,1.0,93,0.00,,---,0.47,VWS V14.01,2013-05-21 13:25:00,
2013-05-21 09:30:00,66.8,64.1,29.66,ENE,76,0.0,5.0,91,0.00,,---,0.47,VWS V14.01,2013-05-21 13:30:00,
2013-05-21 09:35:00,67.0,64.6,29.66,ENE,76,0.0,1.0,92,0.00,,---,0.47,VWS V14.01,2013-05-21 13:35:00,
2013-05-21 09:40:00,67.2,64.5,29.65,SSE,153,0.0,1.0,91,0.00,,---,0.47,VWS V14.01,2013-05-21 13:40:00,
2013-05-21 09:45:00,67.3,64.0,29.65,ESE,103,0.0,1.0,89,0.00,,---,0.47,VWS V14.01,2013-05-21 13:45:00,
2013-05-21 09:50:00,67.5,64.5,29.65,ESE,103,0.0,1.0,90,0.00,,---,0.47,VWS V14.01,2013-05-21 13:50:00,
2013-05-21 09:55:00,68.0,65.0,29.66,NE,48,0.0,4.0,90,0.00,,---,0.47,VWS V14.01,2013-05-21 13:55:00,
2013-05-21 10:00:00,68.5,64.8,29.66,NNE,19,0.0,1.0,88,0.00,,---,0.47,VWS V14.01,2013-05-21 14:00:00,
2013-05-21 10:05:00,69.0,65.3,29.66,NNE,19,0.0,1.0,88,0.00,,---,0.47,VWS V14.01,2013-05-21 14:05:00,
2013-05-21 10:10:00,69.5,65.1,29.66,NNE,19,0.0,1.0,86,0.00,,---,0.47,VWS V14.01,2013-05-21 14:10:00,
2013-05-21 10:15:00,69.5,65.1,29.66,NNE,19,0.0,1.0,86,0.00,,---,0.47,VWS V14.01,2013-05-21 14:15:00,
2013-05-21 10:20:00,69.5,65.1,29.66,NNE,27,0.0,1.0,86,0.00,,---,0.47,VWS V14.01,2013-05-21 14:20:00,
2013-05-21 10:25:00,69.3,65.3,29.66,NNE,27,0.0,0.0,87,0.00,,---,0.47,VWS V14.01,2013-05-21 14:25:00,
2013-05-21 10:30:00,69.2,64.8,29.66,ESE,111,0.0,1.0,86,0.00,,---,0.47,VWS V14.01,2013-05-21 14:30:00,
2013-05-21 10:35:00,69.3,64.9,29.66,ESE,109,1.0,1.0,86,0.00,,---,0.47,VWS V14.01,2013-05-21 14:35:00,
2013-05-21 10:40:00,69.6,65.2,29.65,ESE,109,0.0,1.0,86,0.00,,---,0.47,VWS V14.01,2013-05-21 14:40:00,
2013-05-21 10:45:00,69.8,65.4,29.65,ESE,109,0.0,1.0,86,0.00,,---,0.47,VWS V14.01,2013-05-21 14:45:00,
2013-05-21 10:50:00,70.1,65.4,29.65,NNE,20,0.0,1.0,85,0.00,,---,0.47,VWS V14.01,2013-05-21 14:50:00,
2013-05-21 10:55:00,70.6,65.5,29.65,North,3,0.0,1.0,84,0.00,,---,0.47,VWS V14.01,2013-05-21 14:55:00,
2013-05-21 11:00:00,70.8,66.1,29.65,North,3,0.0,1.0,85,0.00,,---,0.47,VWS V14.01,2013-05-21 15:00:00,
2013-05-21 11:05:00,71.1,65.3,29.65,ESE,108,0.0,0.0,82,0.00,,---,0.47,VWS V14.01,2013-05-21 15:05:00,
2013-05-21 11:10:00,71.1,65.7,29.66,ESE,108,0.0,0.0,83,0.00,,---,0.47,VWS V14.01,2013-05-21 15:10:00,
2013-05-21 11:15:00,71.1,65.7,29.66,SSW,200,0.0,1.0,83,0.00,,---,0.47,VWS V14.01,2013-05-21 15:15:00,
2013-05-21 11:20:00,71.2,65.4,29.66,SE,135,0.0,2.0,82,0.00,,---,0.47,VWS V14.01,2013-05-21 15:20:00,
2013-05-21 11:25:00,71.5,65.7,29.65,NW,320,0.0,3.0,82,0.00,,---,0.47,VWS V14.01,2013-05-21 15:25:00,
2013-05-21 11:30:00,71.8,66.0,29.65,NW,320,0.0,1.0,82,0.00,,---,0.47,VWS V14.01,2013-05-21 15:30:00,
2013-05-21 11:35:00,72.0,65.5,29.65,NW,311,6.0,6.0,80,0.00,,---,0.47,VWS V14.01,2013-05-21 15:35:00,
2013-05-21 11:40:00,72.3,66.2,29.65,NNE,30,0.0,3.0,81,0.00,,---,0.47,VWS V14.01,2013-05-21 15:40:00,
2013-05-21 11:45:00,72.2,65.7,29.65,WNW,302,0.0,4.0,80,0.00,,---,0.47,VWS V14.01,2013-05-21 15:45:00,
2013-05-21 11:50:00,72.5,65.6,29.65,NW,307,0.0,2.0,79,0.00,,---,0.47,VWS V14.01,2013-05-21 15:50:00,
2013-05-21 11:55:00,73.0,65.0,29.64,NW,307,0.0,1.0,76,0.00,,---,0.47,VWS V14.01,2013-05-21 15:55:00,
2013-05-21 12:00:00,73.4,65.8,29.64,NW,314,0.0,1.0,77,0.00,,---,0.47,VWS V14.01,2013-05-21 16:00:00,
2013-05-21 12:05:00,73.9,65.9,29.64,WNW,298,0.0,3.0,76,0.00,,---,0.47,VWS V14.01,2013-05-21 16:05:00,
2013-05-21 12:10:00,73.8,65.4,29.64,NNE,23,0.0,4.0,75,0.00,,---,0.47,VWS V14.01,2013-05-21 16:10:00,
2013-05-21 12:15:00,73.2,65.2,29.64,NNE,31,1.0,3.0,76,0.00,,---,0.47,VWS V14.01,2013-05-21 16:15:00,
2013-05-21 12:20:00,72.8,65.6,29.64,North,352,0.0,1.0,78,0.00,,---,0.47,VWS V14.01,2013-05-21 16:20:00,
2013-05-21 12:25:00,73.1,65.8,29.64,NE,46,0.0,1.0,78,0.00,,---,0.47,VWS V14.01,2013-05-21 16:25:00,
2013-05-21 12:30:00,73.6,65.9,29.64,North,349,2.0,5.0,77,0.00,,---,0.47,VWS V14.01,2013-05-21 16:30:00,
2013-05-21 12:35:00,73.9,65.9,29.64,SE,127,0.0,4.0,76,0.00,,---,0.47,VWS V14.01,2013-05-21 16:35:00,
2013-05-21 12:40:00,74.0,65.6,29.64,SSW,205,0.0,4.0,75,0.00,,---,0.47,VWS V14.01,2013-05-21 16:40:00,
2013-05-21 12:45:00,73.9,65.9,29.64,NE,56,0.0,3.0,76,0.00,,---,0.47,VWS V14.01,2013-05-21 16:45:00,
2013-05-21 12:50:00,74.0,66.3,29.64,ENE,59,0.0,1.0,77,0.00,,---,0.47,VWS V14.01,2013-05-21 16:50:00,
2013-05-21 12:55:00,74.0,66.7,29.64,ENE,59,0.0,1.0,78,0.00,,---,0.47,VWS V14.01,2013-05-21 16:55:00,
2013-05-21 13:00:00,74.7,67.8,29.64,WNW,297,3.0,3.0,79,0.00,,---,0.47,VWS V14.01,2013-05-21 17:00:00,
2013-05-21 13:05:00,74.9,65.7,29.64,ESE,110,0.0,2.0,73,0.00,,---,0.47,VWS V14.01,2013-05-21 17:05:00,
2013-05-21 13:10:00,74.1,65.3,29.64,ESE,120,0.0,1.0,74,0.00,,---,0.47,VWS V14.01,2013-05-21 17:10:00,
2013-05-21 13:15:00,73.5,65.5,29.64,ESE,113,0.0,2.0,76,0.00,,---,0.47,VWS V14.01,2013-05-21 17:15:00,
2013-05-21 13:20:00,74.1,66.4,29.64,NNE,13,0.0,3.0,77,0.00,,---,0.47,VWS V14.01,2013-05-21 17:20:00,
2013-05-21 13:25:00,74.8,67.5,29.64,SW,221,0.0,2.0,78,0.00,,---,0.47,VWS V14.01,2013-05-21 17:25:00,
2013-05-21 13:30:00,75.1,67.0,29.64,NE,37,2.0,2.0,76,0.00,,---,0.47,VWS V14.01,2013-05-21 17:30:00,
2013-05-21 13:35:00,75.7,67.6,29.64,North,1,1.0,4.0,76,0.00,,---,0.47,VWS V14.01,2013-05-21 17:35:00,
2013-05-21 13:40:00,76.5,68.4,29.63,NNW,333,1.0,4.0,76,0.00,,---,0.47,VWS V14.01,2013-05-21 17:40:00,
2013-05-21 13:45:00,77.0,67.7,29.63,West,275,0.0,3.0,73,0.00,,---,0.47,VWS V14.01,2013-05-21 17:45:00,
2013-05-21 13:50:00,76.9,66.4,29.63,SSE,165,0.0,5.0,70,0.00,,---,0.47,VWS V14.01,2013-05-21 17:50:00,
2013-05-21 13:55:00,77.2,67.9,29.63,WNW,298,0.0,5.0,73,0.00,,---,0.47,VWS V14.01,2013-05-21 17:55:00,
2013-05-21 14:00:00,77.3,66.8,29.63,SW,226,3.0,5.0,70,0.00,,---,0.47,VWS V14.01,2013-05-21 18:00:00,
2013-05-21 14:05:00,77.7,68.0,29.63,WSW,240,1.0,1.0,72,0.00,,---,0.47,VWS V14.01,2013-05-21 18:05:00,
2013-05-21 14:10:00,78.9,68.3,29.61,ENE,71,0.0,3.0,70,0.00,,---,0.47,VWS V14.01,2013-05-21 18:10:00,
2013-05-21 14:15:00,79.2,66.9,29.61,NNE,22,1.0,5.0,66,0.00,,---,0.47,VWS V14.01,2013-05-21 18:15:00,
2013-05-21 14:20:00,79.1,66.3,29.61,WNW,293,0.0,3.0,65,0.00,,---,0.47,VWS V14.01,2013-05-21 18:20:00,
2013-05-21 14:25:00,79.2,67.7,29.62,North,8,6.0,6.0,68,0.00,,---,0.47,VWS V14.01,2013-05-21 18:25:00,
2013-05-21 14:30:00,78.9,66.6,29.62,NW,307,4.0,4.0,66,0.00,,---,0.47,VWS V14.01,2013-05-21 18:30:00,
2013-05-21 14:35:00,78.4,66.6,29.62,WNW,283,0.0,2.0,67,0.00,,---,0.47,VWS V14.01,2013-05-21 18:35:00,
2013-05-21 14:40:00,79.0,68.4,29.62,NW,317,4.0,4.0,70,0.00,,---,0.47,VWS V14.01,2013-05-21 18:40:00,
2013-05-21 14:45:00,79.3,67.0,29.62,SSE,165,0.0,3.0,66,0.00,,---,0.47,VWS V14.01,2013-05-21 18:45:00,
2013-05-21 14:50:00,79.6,65.9,29.62,North,3,0.0,4.0,63,0.00,,---,0.47,VWS V14.01,2013-05-21 18:50:00,
2013-05-21 14:55:00,79.9,66.7,29.62,NNE,23,2.0,5.0,64,0.00,,---,0.47,VWS V14.01,2013-05-21 18:55:00,
2013-05-21 15:00:00,80.1,66.4,29.62,WSW,256,0.0,5.0,63,0.00,,---,0.47,VWS V14.01,2013-05-21 19:00:00,
2013-05-21 15:05:00,78.9,66.6,29.62,West,272,0.0,2.0,66,0.00,,---,0.47,VWS V14.01,2013-05-21 19:05:00,
2013-05-21 15:10:00,79.1,67.2,29.62,WSW,239,1.0,6.0,67,0.00,,---,0.47,VWS V14.01,2013-05-21 19:10:00,
2013-05-21 15:15:00,78.9,66.6,29.62,South,169,0.0,1.0,66,0.00,,---,0.47,VWS V14.01,2013-05-21 19:15:00,
2013-05-21 15:20:00,78.4,66.1,29.62,ENE,69,0.0,2.0,66,0.00,,---,0.47,VWS V14.01,2013-05-21 19:20:00,
2013-05-21 15:25:00,78.5,66.6,29.62,SE,145,0.0,1.0,67,0.00,,---,0.47,VWS V14.01,2013-05-21 19:25:00,
2013-05-21 15:30:00,78.5,67.1,29.62,NW,319,0.0,0.0,68,0.00,,---,0.47,VWS V14.01,2013-05-21 19:30:00,
2013-05-21 15:35:00,78.3,66.0,29.62,East,88,0.0,4.0,66,0.00,,---,0.47,VWS V14.01,2013-05-21 19:35:00,
2013-05-21 15:40:00,78.7,66.8,29.62,NNW,330,0.0,4.0,67,0.00,,---,0.47,VWS V14.01,2013-05-21 19:40:00,
2013-05-21 15:45:00,79.5,67.6,29.62,NW,309,3.0,4.0,67,0.00,,---,0.47,VWS V14.01,2013-05-21 19:45:00,
2013-05-21 15:50:00,79.2,66.9,29.62,ESE,117,0.0,4.0,66,0.00,,---,0.47,VWS V14.01,2013-05-21 19:50:00,
2013-05-21 15:55:00,79.1,66.8,29.62,North,354,3.0,4.0,66,0.00,,---,0.47,VWS V14.01,2013-05-21 19:55:00,
2013-05-21 16:00:00,78.9,67.4,29.62,NW,319,0.0,3.0,68,0.00,,---,0.47,VWS V14.01,2013-05-21 20:00:00,
2013-05-21 16:05:00,78.7,66.4,29.62,NNE,33,0.0,3.0,66,0.00,,---,0.47,VWS V14.01,2013-05-21 20:05:00,
2013-05-21 16:10:00,78.3,67.3,29.63,WSW,238,0.0,3.0,69,0.00,,---,0.47,VWS V14.01,2013-05-21 20:10:00,
2013-05-21 16:15:00,79.1,67.6,29.63,North,1,0.0,4.0,68,0.00,,---,0.47,VWS V14.01,2013-05-21 20:15:00,
2013-05-21 16:20:00,79.6,67.2,29.63,ENE,75,1.0,1.0,66,0.00,,---,0.47,VWS V14.01,2013-05-21 20:20:00,
2013-05-21 16:25:00,79.9,68.0,29.62,SW,226,0.0,1.0,67,0.00,,---,0.47,VWS V14.01,2013-05-21 20:25:00,
2013-05-21 16:30:00,80.0,67.2,29.62,NE,43,0.0,3.0,65,0.00,,---,0.47,VWS V14.01,2013-05-21 20:30:00,
2013-05-21 16:35:00,79.8,66.6,29.62,SE,126,0.0,3.0,64,0.00,,---,0.47,VWS V14.01,2013-05-21 20:35:00,
2013-05-21 16:40:00,79.9,66.7,29.61,NNE,12,4.0,6.0,64,0.00,,---,0.47,VWS V14.01,2013-05-21 20:40:00,
2013-05-21 16:45:00,79.8,67.0,29.61,NE,34,1.0,4.0,65,0.00,,---,0.47,VWS V14.01,2013-05-21 20:45:00,
2013-05-21 16:50:00,80.0,67.2,29.61,SW,232,1.0,3.0,65,0.00,,---,0.47,VWS V14.01,2013-05-21 20:50:00,
2013-05-21 16:55:00,80.0,67.2,29.60,WNW,302,0.0,1.0,65,0.00,,---,0.47,VWS V14.01,2013-05-21 20:55:00,
2013-05-21 17:00:00,80.2,67.4,29.60,NW,318,2.0,6.0,65,0.00,,---,0.47,VWS V14.01,2013-05-21 21:00:00,
2013-05-21 17:05:00,80.3,68.3,29.60,SW,235,0.0,3.0,67,0.00,,---,0.47,VWS V14.01,2013-05-21 21:05:00,
2013-05-21 17:10:00,80.5,67.7,29.60,SSE,168,0.0,2.0,65,0.00,,---,0.47,VWS V14.01,2013-05-21 21:10:00,
2013-05-21 17:15:00,80.3,67.5,29.60,North,349,0.0,5.0,65,0.00,,---,0.47,VWS V14.01,2013-05-21 21:15:00,
2013-05-21 17:20:00,80.4,66.7,29.60,NW,316,1.0,7.0,63,0.00,,---,0.47,VWS V14.01,2013-05-21 21:20:00,
2013-05-21 17:25:00,80.7,67.8,29.60,NW,319,0.0,3.0,65,0.00,,---,0.47,VWS V14.01,2013-05-21 21:25:00,
2013-05-21 17:30:00,80.8,67.0,29.60,WNW,295,0.0,4.0,63,0.00,,---,0.47,VWS V14.01,2013-05-21 21:30:00,
2013-05-21 17:35:00,80.7,67.4,29.60,NW,312,0.0,4.0,64,0.00,,---,0.47,VWS V14.01,2013-05-21 21:35:00,
2013-05-21 17:40:00,80.6,67.8,29.60,WNW,283,0.0,5.0,65,0.00,,---,0.47,VWS V14.01,2013-05-21 21:40:00,
2013-05-21 17:45:00,80.5,67.2,29.60,NW,323,1.0,1.0,64,0.00,,---,0.47,VWS V14.01,2013-05-21 21:45:00,
2013-05-21 17:50:00,80.7,66.5,29.60,NNW,337,0.0,2.0,62,0.00,,---,0.47,VWS V14.01,2013-05-21 21:50:00,
2013-05-21 17:55:00,80.7,67.8,29.60,NW,307,1.0,4.0,65,0.00,,---,0.47,VWS V14.01,2013-05-21 21:55:00,
2013-05-21 18:00:00,80.8,67.0,29.60,NNE,23,0.0,3.0,63,0.00,,---,0.47,VWS V14.01,2013-05-21 22:00:00,
2013-05-21 18:05:00,80.7,66.9,29.60,NNE,20,0.0,2.0,63,0.00,,---,0.47,VWS V14.01,2013-05-21 22:05:00,
2013-05-21 18:10:00,80.4,66.7,29.60,South,190,0.0,1.0,63,0.00,,---,0.47,VWS V14.01,2013-05-21 22:10:00,
2013-05-21 18:15:00,80.2,69.5,29.60,SW,236,0.0,1.0,70,0.00,,---,0.47,VWS V14.01,2013-05-21 22:15:00,
2013-05-21 18:20:00,80.2,68.3,29.60,NNE,12,0.0,3.0,67,0.00,,---,0.47,VWS V14.01,2013-05-21 22:20:00,
2013-05-21 18:25:00,80.3,67.0,29.60,SSE,160,0.0,2.0,64,0.00,,---,0.47,VWS V14.01,2013-05-21 22:25:00,
2013-05-21 18:30:00,80.0,66.7,29.60,North,4,0.0,1.0,64,0.00,,---,0.47,VWS V14.01,2013-05-21 22:30:00,
2013-05-21 18:35:00,79.5,66.7,29.60,WNW,295,2.0,6.0,65,0.00,,---,0.47,VWS V14.01,2013-05-21 22:35:00,
2013-05-21 18:40:00,79.3,66.1,29.60,ENE,66,0.0,3.0,64,0.00,,---,0.47,VWS V14.01,2013-05-21 22:40:00,
2013-05-21 18:45:00,79.5,67.2,29.60,West,276,0.0,5.0,66,0.00,,---,0.47,VWS V14.01,2013-05-21 22:45:00,
2013-05-21 18:50:00,79.6,67.7,29.60,NNW,332,0.0,1.0,67,0.00,,---,0.47,VWS V14.01,2013-05-21 22:50:00,
2013-05-21 18:55:00,79.8,67.4,29.59,WSW,251,1.0,5.0,66,0.00,,---,0.47,VWS V14.01,2013-05-21 22:55:00,
2013-05-21 19:00:00,79.8,67.4,29.59,West,268,0.0,4.0,66,0.00,,---,0.47,VWS V14.01,2013-05-21 23:00:00,
2013-05-21 19:05:00,79.8,67.0,29.59,NW,304,0.0,2.0,65,0.00,,---,0.47,VWS V14.01,2013-05-21 23:05:00,
2013-05-21 19:10:00,80.1,67.3,29.59,NW,304,0.0,1.0,65,0.00,,---,0.47,VWS V14.01,2013-05-21 23:10:00,
2013-05-21 19:15:00,80.0,67.2,29.59,North,355,0.0,3.0,65,0.00,,---,0.47,VWS V14.01,2013-05-21 23:15:00,
2013-05-21 19:20:00,80.0,67.6,29.59,North,353,0.0,1.0,66,0.00,,---,0.47,VWS V14.01,2013-05-21 23:20:00,
2013-05-21 19:25:00,80.0,67.2,29.58,North,354,0.0,0.0,65,0.00,,---,0.47,VWS V14.01,2013-05-21 23:25:00,
2013-05-21 19:30:00,79.9,67.5,29.58,North,354,0.0,0.0,66,0.00,,---,0.47,VWS V14.01,2013-05-21 23:30:00,
2013-05-21 19:35:00,79.8,67.0,29.58,North,353,0.0,3.0,65,0.00,,---,0.47,VWS V14.01,2013-05-21 23:35:00,
2013-05-21 19:40:00,79.7,66.9,29.58,North,353,1.0,1.0,65,0.00,,---,0.47,VWS V14.01,2013-05-21 23:40:00,
2013-05-21 19:45:00,79.7,66.9,29.58,North,354,0.0,2.0,65,0.00,,---,0.47,VWS V14.01,2013-05-21 23:45:00,
2013-05-21 19:50:00,79.6,66.4,29.58,North,354,0.0,1.0,64,0.00,,---,0.47,VWS V14.01,2013-05-21 23:50:00,
2013-05-21 19:55:00,79.2,66.9,29.58,North,354,0.0,0.0,66,0.00,,---,0.47,VWS V14.01,2013-05-21 23:55:00,
2013-05-21 20:00:00,78.8,66.9,29.58,North,354,0.0,0.0,67,0.00,,---,0.47,VWS V14.01,2013-05-22 00:00:00,
2013-05-21 20:05:00,78.2,67.2,29.58,North,354,0.0,0.0,69,0.00,,---,0.47,VWS V14.01,2013-05-22 00:05:00,
2013-05-21 20:10:00,78.0,67.0,29.58,North,358,0.0,0.0,69,0.00,,---,0.47,VWS V14.01,2013-05-22 00:10:00,
2013-05-21 20:15:00,77.6,67.1,29.58,North,358,0.0,0.0,70,0.00,,---,0.47,VWS V14.01,2013-05-22 00:15:00,
2013-05-21 20:20:00,77.6,67.5,29.58,North,358,0.0,0.0,71,0.00,,---,0.47,VWS V14.01,2013-05-22 00:20:00,
2013-05-21 20:25:00,77.2,67.5,29.57,North,358,0.0,0.0,72,0.00,,---,0.47,VWS V14.01,2013-05-22 00:25:00,
2013-05-21 20:30:00,76.7,66.6,29.57,North,358,0.0,0.0,71,0.00,,---,0.47,VWS V14.01,2013-05-22 00:30:00,
2013-05-21 20:35:00,76.4,66.7,29.57,North,358,0.0,0.0,72,0.00,,---,0.47,VWS V14.01,2013-05-22 00:35:00,
2013-05-21 20:40:00,76.0,67.1,29.58,North,358,0.0,0.0,74,0.00,,---,0.47,VWS V14.01,2013-05-22 00:40:00,
2013-05-21 20:45:00,75.6,66.7,29.58,North,358,0.0,0.0,74,0.00,,---,0.47,VWS V14.01,2013-05-22 00:45:00,
2013-05-21 20:50:00,75.4,67.3,29.58,North,358,0.0,0.0,76,0.00,,---,0.47,VWS V14.01,2013-05-22 00:50:00,
2013-05-21 20:55:00,75.0,66.9,29.58,North,358,0.0,0.0,76,0.00,,---,0.47,VWS V14.01,2013-05-22 00:55:00,
2013-05-21 21:00:00,74.8,66.7,29.58,North,358,0.0,0.0,76,0.00,,---,0.47,VWS V14.01,2013-05-22 01:00:00,
2013-05-21 21:05:00,74.3,66.6,29.58,North,358,0.0,0.0,77,0.00,,---,0.47,VWS V14.01,2013-05-22 01:05:00,
2013-05-21 21:10:00,74.0,66.7,29.58,North,358,0.0,0.0,78,0.00,,---,0.47,VWS V14.01,2013-05-22 01:10:00,
2013-05-21 21:15:00,73.7,66.4,29.58,North,358,0.0,0.0,78,0.00,,---,0.47,VWS V14.01,2013-05-22 01:15:00,
2013-05-21 21:20:00,73.3,66.4,29.58,North,358,0.0,0.0,79,0.00,,---,0.47,VWS V14.01,2013-05-22 01:20:00,
2013-05-21 21:25:00,73.0,67.5,29.58,North,358,0.0,0.0,83,0.00,,---,0.47,VWS V14.01,2013-05-22 01:25:00,
2013-05-21 21:30:00,72.8,67.0,29.58,North,358,0.0,0.0,82,0.00,,---,0.47,VWS V14.01,2013-05-22 01:30:00,
2013-05-21 21:35:00,72.5,66.7,29.58,North,358,0.0,0.0,82,0.00,,---,0.47,VWS V14.01,2013-05-22 01:35:00,
2013-05-21 21:40:00,72.3,66.5,29.59,North,358,0.0,0.0,82,0.00,,---,0.47,VWS V14.01,2013-05-22 01:40:00,
2013-05-21 21:45:00,71.9,66.1,29.59,North,358,0.0,0.0,82,0.00,,---,0.47,VWS V14.01,2013-05-22 01:45:00,
2013-05-21 21:49:00,71.8,67.1,29.59,North,358,0.0,0.0,85,0.00,,---,0.47,VWS V14.01,2013-05-22 01:49:00,
2013-05-21 21:54:00,71.4,67.0,29.60,North,359,0.0,0.0,86,0.00,,---,0.47,VWS V14.01,2013-05-22 01:54:00,
2013-05-21 21:59:00,71.1,67.0,29.60,North,359,0.0,0.0,87,0.00,,---,0.47,VWS V14.01,2013-05-22 01:59:00,
2013-05-21 22:04:00,70.9,66.8,29.60,North,359,0.0,0.0,87,0.00,,---,0.47,VWS V14.01,2013-05-22 02:04:00,
2013-05-21 22:09:00,70.8,66.7,29.61,North,359,0.0,0.0,87,0.00,,---,0.47,VWS V14.01,2013-05-22 02:09:00,
2013-05-21 22:14:00,70.5,66.4,29.61,North,359,0.0,0.0,87,0.00,,---,0.47,VWS V14.01,2013-05-22 02:14:00,
2013-05-21 22:19:00,70.3,66.6,29.61,North,359,0.0,0.0,88,0.00,,---,0.47,VWS V14.01,2013-05-22 02:19:00,
2013-05-21 22:24:00,70.1,66.4,29.61,North,359,0.0,0.0,88,0.00,,---,0.47,VWS V14.01,2013-05-22 02:24:00,
2013-05-21 22:29:00,70.0,66.3,29.61,North,359,0.0,0.0,88,0.00,,---,0.47,VWS V14.01,2013-05-22 02:29:00,
2013-05-21 22:34:00,69.8,66.4,29.61,North,359,0.0,0.0,89,0.00,,---,0.47,VWS V14.01,2013-05-22 02:34:00,
2013-05-21 22:39:00,69.7,66.3,29.61,North,359,0.0,0.0,89,0.00,,---,0.47,VWS V14.01,2013-05-22 02:39:00,
2013-05-21 22:44:00,69.4,66.0,29.61,North,359,0.0,0.0,89,0.00,,---,0.47,VWS V14.01,2013-05-22 02:44:00,
2013-05-21 22:49:00,69.3,66.2,29.61,North,359,0.0,0.0,90,0.00,,---,0.47,VWS V14.01,2013-05-22 02:49:00,
2013-05-21 22:54:00,69.3,65.9,29.62,North,359,0.0,0.0,89,0.00,,---,0.47,VWS V14.01,2013-05-22 02:54:00,
2013-05-21 22:59:00,69.5,66.1,29.62,North,359,0.0,0.0,89,0.00,,---,0.47,VWS V14.01,2013-05-22 02:59:00,
2013-05-21 23:04:00,69.8,66.4,29.62,North,359,0.0,0.0,89,0.00,,---,0.47,VWS V14.01,2013-05-22 03:04:00,
2013-05-21 23:09:00,69.9,66.8,29.62,North,359,0.0,0.0,90,0.00,,---,0.47,VWS V14.01,2013-05-22 03:09:00,
2013-05-21 23:14:00,69.9,66.5,29.62,North,359,0.0,0.0,89,0.00,,---,0.47,VWS V14.01,2013-05-22 03:14:00,
2013-05-21 23:19:00,69.8,66.7,29.62,North,359,0.0,0.0,90,0.00,,---,0.47,VWS V14.01,2013-05-22 03:19:00,
2013-05-21 23:24:00,69.8,66.7,29.61,North,359,0.0,0.0,90,0.00,,---,0.47,VWS V14.01,2013-05-22 03:24:00,
2013-05-21 23:29:00,69.5,65.8,29.61,North,359,0.0,0.0,88,0.00,,---,0.47,VWS V14.01,2013-05-22 03:29:00,
2013-05-21 23:34:00,69.3,65.9,29.61,North,359,0.0,0.0,89,0.00,,---,0.47,VWS V14.01,2013-05-22 03:34:00,
2013-05-21 23:39:00,69.2,65.8,29.61,North,359,0.0,0.0,89,0.00,,---,0.47,VWS V14.01,2013-05-22 03:39:00,
2013-05-21 23:44:00,69.2,65.8,29.61,North,359,0.0,0.0,89,0.00,,---,0.47,VWS V14.01,2013-05-22 03:44:00,
2013-05-21 23:49:00,69.2,65.8,29.61,North,359,0.0,0.0,89,0.00,,---,0.47,VWS V14.01,2013-05-22 03:49:00,
2013-05-21 23:54:00,69.6,66.2,29.61,North,359,0.0,0.0,89,0.00,,---,0.47,VWS V14.01,2013-05-22 03:54:00,
2013-05-21 23:59:00,69.9,66.2,29.61,North,359,0.0,0.0,88,0.00,,---,0.47,VWS V14.01,2013-05-22 03:59:00,